Location: State Camp
(41.2367°N, 77.7828°W)
Time: 15:16:07
(UTC-04:00)

Amateur Radio Satellites - All Passes

Search period start: 23 July 2016 14:46
Search period end: 24 July 2016 14:46
Location: State Camp, 41.2367°N, 77.7828°W

Satellite Date Start Highest point End Downlink Frequencies (MHz)
Time Altitude Azimuth
DX 1 23 Jul 14:52:42 14:53:53 11° 299° (WNW) 14:55:04 434.975-435.025
ITAMSAT 1 23 Jul 14:59:04 15:04:13 63° 72° (ENE) 15:09:24 435.822/435.867
AIST 1 23 Jul 14:59:21 15:03:23 42° 282° (WNW) 15:07:26
SWISSCUBE 23 Jul 15:01:44 15:06:06 35° 97° (E) 15:10:25 437.505
CUSAT 1 23 Jul 15:07:49 15:09:59 20° 77° (ENE) 15:12:25 437.405
Oscar 19 23 Jul 15:16:33 15:19:15 14° 270° (W) 15:21:59 437.125/150
AO-85 23 Jul 15:21:41 15:27:04 72° 120° (ESE) 15:32:14 145.980
BEESAT 23 Jul 15:23:25 15:28:05 53° 100° (E) 15:32:43 436.000
TISAT 1 23 Jul 15:30:16 15:33:36 22° 293° (WNW) 15:36:54 437.305
ITUPSAT 1 23 Jul 15:43:33 15:48:22 83° 103° (ESE) 15:53:07 437.325
Cosmos 2499 23 Jul 15:52:49 16:00:44 38° 86° (E) 16:08:34 435.465 / 435.565
Gurwin Techsat 1B 23 Jul 16:02:48 16:05:08 13° 271° (W) 16:07:29 435.225
AO-7 23 Jul 16:06:03 16:14:25 81° 253° (WSW) 16:22:52 29.400- 29.500
GONETS M04 23 Jul 16:06:57 16:15:26 62° 92° (E) 16:23:59
DANDE 23 Jul 16:32:03 16:34:39 90° 136° (SE) 16:37:20 436.750
KKS-1 23 Jul 16:38:54 16:43:05 37° 98° (E) 16:47:16 437.445
SWISSCUBE 23 Jul 16:39:51 16:43:42 25° 294° (WNW) 16:47:33 437.505
ITAMSAT 1 23 Jul 16:40:58 16:44:06 16° 269° (W) 16:47:16 435.822/435.867
SO-50 23 Jul 16:41:04 16:42:53 12° 34° (NE) 16:44:41 436.795
MOZHAYETS 4 23 Jul 16:42:17 16:46:41 44° 99° (E) 16:51:02
NOAA 15 23 Jul 16:45:28 16:46:39 11° 57° (ENE) 16:47:50 137.62
RS-15 23 Jul 16:45:29 16:57:54 73° 54° (NE) 17:10:07 29.354- 29.394
CUSAT 1 23 Jul 16:50:50 16:51:50 11° 266° (W) 16:52:53 437.405
HORYU 2 23 Jul 17:00:49 17:05:12 57° 73° (ENE) 17:09:37 437.375
BEESAT 23 Jul 17:02:20 17:05:27 18° 297° (WNW) 17:08:33 436.000
AO-85 23 Jul 17:04:04 17:08:01 21° 317° (NW) 17:11:51 145.980
Cubesat XI-IV 23 Jul 17:23:14 17:26:52 19° 62° (ENE) 17:30:31 437.490
ITUPSAT 1 23 Jul 17:23:51 17:25:29 12° 301° (WNW) 17:27:07 437.325
BRITE-PL 23 Jul 17:26:53 17:30:06 22° 68° (ENE) 17:33:18 437.365/2234.400
STARS 23 Jul 17:29:04 17:33:30 66° 101° (ESE) 17:37:54 437.465
LilacSat-2 23 Jul 17:41:52 17:44:28 17° 67° (ENE) 17:47:05 437.200
Cosmos 2499 23 Jul 17:45:05 17:53:37 50° 285° (WNW) 18:02:05 435.465 / 435.565
CUTE-I 23 Jul 17:47:05 17:51:41 30° 66° (ENE) 17:56:19 437.470
NOAA 18 23 Jul 17:47:29 17:52:19 32° 66° (ENE) 17:57:11 137.9125
CUBESAT XI-V 23 Jul 17:50:24 17:54:23 28° 95° (E) 17:58:21 437.345
AO-7 23 Jul 18:03:54 18:08:22 15° 271° (W) 18:12:52 29.400- 29.500
GONETS M04 23 Jul 18:05:34 18:12:49 29° 292° (WNW) 18:20:10
KKS-1 23 Jul 18:16:02 18:19:24 21° 294° (WNW) 18:22:46 437.445
HO-68 23 Jul 18:19:01 18:22:22 14° 51° (NE) 18:25:43 435.675
SO-50 23 Jul 18:19:40 18:24:19 67° 56° (NE) 18:28:47 436.795
NOAA 15 23 Jul 18:20:18 18:25:32 79° 74° (ENE) 18:30:48 137.62
MOZHAYETS 4 23 Jul 18:20:19 18:23:30 19° 295° (WNW) 18:26:39
HORYU 2 23 Jul 18:39:52 18:42:07 14° 269° (W) 18:44:21 437.375
GOMX 1 23 Jul 18:49:21 18:53:29 78° 77° (ENE) 18:57:45 467.674
RS-15 23 Jul 18:58:59 19:09:26 35° 256° (WSW) 19:19:46 29.354- 29.394
Cubesat XI-IV 23 Jul 19:01:07 19:06:26 61° 259° (WSW) 19:11:47 437.490
CANX-2 23 Jul 19:02:19 19:04:11 13° 63° (ENE) 19:06:03 2200.000
DOVE 4 23 Jul 19:03:16 19:07:18 47° 72° (ENE) 19:11:33 437.250
BRITE-PL 23 Jul 19:04:50 19:08:29 29° 264° (W) 19:12:07 437.365/2234.400
STARS 23 Jul 19:07:18 19:09:18 13° 298° (WNW) 19:11:17 437.465
LilacSat-2 23 Jul 19:14:59 19:18:31 33° 263° (W) 19:22:04 437.200
CUTE 1.7 + AOD 2 23 Jul 19:15:51 19:18:22 15° 65° (ENE) 19:20:53 437.475
STRAND 1 23 Jul 19:17:54 19:20:42 15° 91° (E) 19:23:29 437.568
CUTE-I 23 Jul 19:26:42 19:31:36 36° 263° (W) 19:36:32 437.470
CUBESAT XI-V 23 Jul 19:27:47 19:31:42 28° 292° (WNW) 19:35:37 437.345
NOAA 18 23 Jul 19:27:52 19:32:53 35° 263° (W) 19:37:56 137.9125
PCSat 23 Jul 19:33:15 19:36:46 18° 105° (ESE) 19:40:17 145.827
PHONESAT 2.4 23 Jul 19:44:23 19:47:17 38° 161° (SSE) 19:50:11 2401.200-2431.200
CINEMA 3 23 Jul 19:44:45 19:48:52 39° 70° (ENE) 19:53:11 145.822/145.860
CUBEBUG 2 23 Jul 19:45:13 19:47:20 13° 61° (ENE) 19:49:29 437.445
BEESAT 2 23 Jul 19:51:45 19:55:05 27° 114° (ESE) 19:58:28 435.950
BEESAT 3 23 Jul 19:53:21 19:57:11 54° 118° (ESE) 20:01:02 437.485
SEEDS 23 Jul 20:01:08 20:04:55 33° 71° (ENE) 20:08:43 437.485
HO-68 23 Jul 20:01:41 20:08:47 69° 70° (ENE) 20:15:57 435.675
SO-50 23 Jul 20:01:57 20:04:10 13° 252° (WSW) 20:06:21 436.795
NOAA 15 23 Jul 20:03:47 20:05:54 12° 271° (W) 20:08:01 137.62
YUBILEINY 23 Jul 20:14:37 20:21:08 22° 64° (ENE) 20:27:35 435.215
COMPASS 1 23 Jul 20:20:31 20:24:22 37° 72° (ENE) 20:28:15 437.405
Oscar 11 23 Jul 20:30:40 20:33:28 17° 65° (ENE) 20:36:17 145.826/435.025
CANX-2 23 Jul 20:35:17 20:39:32 62° 260° (W) 20:43:47 2200.000
DOVE 4 23 Jul 20:43:05 20:45:22 14° 270° (W) 20:47:43 437.250
O/OREOS (USA 219) 23 Jul 20:46:11 20:48:24 14° 99° (E) 20:50:36 437.305
CUTE 1.7 + AOD 2 23 Jul 20:49:39 20:53:48 48° 261° (W) 20:57:58 437.475
AAUSAT CUBESAT 2 23 Jul 20:52:37 20:56:45 70° 75° (ENE) 21:00:54 437.432
STRAND 1 23 Jul 20:55:14 21:00:19 65° 287° (WNW) 21:05:22 437.568
PRISM 23 Jul 20:59:00 21:01:49 18° 94° (E) 21:04:39 437.425
UWE-3 23 Jul 21:05:20 21:09:46 58° 74° (ENE) 21:14:21 435.000/436.395/437.385
M-CUBED/EXP-1 PRIME 23 Jul 21:13:48 21:16:54 26° 63° (ENE) 21:20:14 437.505
PCSat 23 Jul 21:14:13 21:19:35 64° 301° (WNW) 21:25:00 145.827
ZACube-1 23 Jul 21:15:15 21:19:35 49° 72° (ENE) 21:24:00 437.345
FUNcube-1 23 Jul 21:16:38 21:20:57 47° 72° (ENE) 21:25:20 145.935
CUBEBUG 2 23 Jul 21:18:49 21:23:18 69° 259° (W) 21:27:59 437.445
PHONESAT 2.4 23 Jul 21:20:35 21:23:40 79° 176° (S) 21:26:46 2401.200-2431.200
AIST 2 23 Jul 21:20:41 21:21:57 11° 108° (ESE) 21:23:13 435.215
CINEMA 3 23 Jul 21:22:57 21:26:11 20° 268° (W) 21:29:32 145.822/145.860
BEESAT 2 23 Jul 21:29:25 21:32:51 28° 311° (NW) 21:36:19 435.950
HUMSAT D 23 Jul 21:31:04 21:33:47 16° 65° (ENE) 21:36:29 437.325/437.525
BEESAT 3 23 Jul 21:32:38 21:35:11 16° 317° (NW) 21:37:45 437.485
Cosmos 2491 23 Jul 21:35:48 21:43:19 34° 84° (E) 21:50:48 435.465 / 435.565
SEEDS 23 Jul 21:37:28 21:40:40 21° 266° (W) 21:43:53 437.485
AUBIESAT-1 23 Jul 21:42:53 21:46:27 46° 67° (ENE) 21:50:17 437.475
DELFI C3 23 Jul 21:49:22 21:53:13 50° 74° (ENE) 21:57:05 145.870
HO-68 23 Jul 21:51:42 21:57:03 22° 268° (W) 22:02:27 435.675
COMPASS 1 23 Jul 21:57:12 22:00:04 18° 267° (W) 22:02:56 437.405
Oscar 11 23 Jul 22:05:04 22:09:14 45° 261° (W) 22:13:26 145.826/435.025
YUBILEINY 23 Jul 22:10:07 22:19:01 82° 265° (W) 22:27:49 435.215
TIGRISAT 23 Jul 22:15:16 22:16:12 11° 88° (E) 22:17:09 435.000
O/OREOS (USA 219) 23 Jul 22:22:54 22:27:17 55° 295° (WNW) 22:31:41 437.305
UNISAT 6 23 Jul 22:28:30 22:31:28 17° 91° (E) 22:34:22 437.425
ISS 23 Jul 22:32:46 22:35:28 24° 135° (SE) 22:38:11 145.825
Cosmos 2504 23 Jul 22:33:19 22:41:23 51° 76° (ENE) 22:48:48 435.465 / 435.565
PRISM 23 Jul 22:33:30 22:37:14 35° 289° (WNW) 22:40:58 437.425
ESTCUBE 1 23 Jul 22:39:25 22:42:18 17° 64° (ENE) 22:45:11 437.505/2401.250
UWE-3 23 Jul 22:44:20 22:46:37 14° 271° (W) 22:48:57 435.000/436.395/437.385
M-CUBED/EXP-1 PRIME 23 Jul 22:48:35 22:51:26 22° 261° (W) 22:54:29 437.505
ZACube-1 23 Jul 22:53:20 22:56:08 16° 269° (W) 22:58:59 437.345
FUNcube-1 23 Jul 22:54:34 22:57:26 17° 269° (W) 23:00:21 145.935
AIST 2 23 Jul 22:55:46 22:59:51 66° 304° (NW) 23:03:59 435.215
PHONESAT 2.4 23 Jul 22:57:05 23:00:07 52° 194° (SSW) 23:03:07 2401.200-2431.200
PCSat 23 Jul 23:01:46 23:04:06 13° 323° (NW) 23:06:26 145.827
HUMSAT D 23 Jul 23:04:52 23:09:01 46° 261° (W) 23:13:12 437.325/437.525
ANTELSAT 23 Jul 23:06:03 23:10:27 40° 98° (E) 23:14:45 437.575/2403.000
VELOX 1 23 Jul 23:12:23 23:15:42 21° 66° (ENE) 23:19:03 145.980
AUBIESAT-1 23 Jul 23:19:38 23:21:16 12° 265° (W) 23:22:58 437.475
CUBEBUG 1 23 Jul 23:23:30 23:27:16 30° 69° (ENE) 23:31:04 437.445
DELFI C3 23 Jul 23:26:44 23:28:21 12° 269° (W) 23:29:58 145.870
Cosmos 2491 23 Jul 23:31:19 23:39:45 52° 284° (WNW) 23:48:14 435.465 / 435.565
SPROUT 23 Jul 23:37:05 23:39:57 18° 65° (ENE) 23:42:51 437.525
QB50P2 23 Jul 23:40:19 23:42:48 15° 92° (E) 23:45:16 145.880/145.840
POLYITAN 1 23 Jul 23:42:55 23:45:28 15° 92° (E) 23:48:00 437.675
TIGRISAT 23 Jul 23:48:45 23:53:26 76° 285° (WNW) 23:58:00 435.000
AO-85 23 Jul 23:54:17 23:58:40 56° 54° (NE) 00:02:40 145.980
AISAT 23 Jul 23:55:33 23:59:52 65° 74° (ENE) 00:04:15 437.250
UNISAT 6 24 Jul 00:03:56 00:08:27 49° 288° (WNW) 00:12:52 437.425
ISS 24 Jul 00:08:41 00:11:47 39° 331° (NNW) 00:14:52 145.825
DX 1 24 Jul 00:09:10 00:13:26 65° 74° (ENE) 00:17:44 434.975-435.025
YUBILEINY 24 Jul 00:09:42 00:14:18 16° 285° (WNW) 00:18:56 435.215
ESTCUBE 1 24 Jul 00:14:21 00:18:43 48° 261° (W) 00:23:05 437.505/2401.250
50 SAT 24 Jul 00:15:42 00:19:23 68° 259° (W) 00:23:03 437.505
Cosmos 2504 24 Jul 00:27:20 00:34:19 32° 277° (W) 00:40:54 435.465 / 435.565
NANOSAT C BR1 24 Jul 00:28:33 00:32:41 45° 99° (E) 00:36:47 145.865
UKube-1 24 Jul 00:30:14 00:34:32 88° 84° (E) 00:38:52 .
PHONESAT 2.4 24 Jul 00:34:20 00:36:13 15° 210° (SSW) 00:38:07 2401.200-2431.200
DUCHIFAT 1 24 Jul 00:34:45 00:38:56 50° 100° (E) 00:43:04 145.980
ANTELSAT 24 Jul 00:43:22 00:46:52 21° 295° (WNW) 00:50:18 437.575/2403.000
TISAT 1 24 Jul 00:46:11 00:49:33 24° 68° (ENE) 00:52:56 437.305
VELOX 1 24 Jul 00:47:57 00:51:57 35° 262° (W) 00:56:00 145.980
QB50P1 24 Jul 00:48:33 00:52:53 83° 105° (ESE) 00:57:09 145.935-145.965
POPSAT HIP 1 24 Jul 00:54:37 00:58:57 86° 284° (WNW) 01:03:14 437.405
CUBEBUG 1 24 Jul 01:00:08 01:03:33 23° 265° (W) 01:07:01 437.445
BUGSAT 1 24 Jul 01:05:29 01:09:38 49° 100° (E) 01:13:45 437.445
AIST 1 24 Jul 01:05:58 01:10:07 43° 78° (ENE) 01:14:16
SPROUT 24 Jul 01:11:33 01:15:35 41° 262° (W) 01:19:39 437.525
QB50P2 24 Jul 01:14:43 01:18:51 47° 288° (WNW) 01:22:57 145.880/145.840
ITUPSAT 1 24 Jul 01:16:07 01:17:42 12° 59° (ENE) 01:19:18 437.325
POLYITAN 1 24 Jul 01:17:23 01:21:30 46° 288° (WNW) 01:25:36 437.675
AISAT 24 Jul 01:35:27 01:36:47 11° 270° (W) 01:38:05 437.250
AO-85 24 Jul 01:36:25 01:38:29 13° 253° (WSW) 01:40:28 145.980
Oscar 19 24 Jul 01:46:33 01:50:39 23° 94° (E) 01:54:43 437.125/150
ISS 24 Jul 01:46:56 01:48:53 15° 351° (N) 01:50:50 145.825
Cosmos 2499 24 Jul 01:47:31 01:49:47 11° 55° (NE) 01:52:00 435.465 / 435.565
JAS-2 24 Jul 01:48:08 01:53:23 82° 104° (ESE) 01:59:00 435.910
DX 1 24 Jul 01:48:51 01:50:02 11° 270° (W) 01:51:15 434.975-435.025
NANOSAT C BR1 24 Jul 02:05:22 02:08:03 16° 295° (WNW) 02:10:42 145.865
SWISSCUBE 24 Jul 02:07:59 02:12:28 41° 70° (ENE) 02:16:58 437.505
DUCHIFAT 1 24 Jul 02:11:44 02:14:12 15° 296° (WNW) 02:16:38 145.980
GONETS M04 24 Jul 02:17:28 02:25:02 31° 69° (ENE) 02:32:34
TISAT 1 24 Jul 02:21:27 02:25:04 28° 264° (W) 02:28:45 437.305
BEESAT 24 Jul 02:29:32 02:34:15 61° 73° (ENE) 02:38:59 436.000
Gurwin Techsat 1B 24 Jul 02:35:56 02:40:36 30° 96° (E) 02:45:15 435.225
BUGSAT 1 24 Jul 02:42:05 02:44:35 15° 296° (WNW) 02:47:05 437.445
AIST 1 24 Jul 02:44:48 02:47:19 15° 274° (W) 02:49:50
ITUPSAT 1 24 Jul 02:50:00 02:54:49 85° 255° (WSW) 02:59:39 437.325
ITAMSAT 1 24 Jul 03:12:43 03:16:42 22° 94° (E) 03:20:37 435.822/435.867
ISS 24 Jul 03:24:16 03:26:19 15° 11° (N) 03:28:22 145.825
Oscar 19 24 Jul 03:25:16 03:30:06 42° 290° (WNW) 03:34:58 437.125/150
JAS-2 24 Jul 03:35:37 03:37:52 13° 300° (WNW) 03:40:10 435.910
KKS-1 24 Jul 03:36:53 03:40:54 35° 69° (ENE) 03:44:56 437.445
Cosmos 2499 24 Jul 03:36:55 03:44:53 64° 79° (ENE) 03:52:12 435.465 / 435.565
MOZHAYETS 4 24 Jul 03:43:52 03:48:14 42° 71° (ENE) 03:52:37
SWISSCUBE 24 Jul 03:46:47 03:50:24 21° 266° (W) 03:54:02 437.505
DANDE 24 Jul 03:59:27 04:02:05 13° 91° (E) 04:04:27 436.750
AO-7 24 Jul 04:08:11 04:15:38 35° 97° (E) 04:23:00 29.400- 29.500
BEESAT 2 24 Jul 04:09:40 04:12:37 19° 45° (NE) 04:15:33 435.950
BEESAT 24 Jul 04:09:54 04:12:25 14° 269° (W) 04:14:56 436.000
CUSAT 1 24 Jul 04:10:25 04:14:36 33° 97° (E) 04:17:55 437.405
BEESAT 3 24 Jul 04:10:39 04:14:15 32° 50° (NE) 04:17:50 437.485
GONETS M04 24 Jul 04:13:45 04:22:20 60° 269° (W) 04:30:55
Gurwin Techsat 1B 24 Jul 04:15:46 04:20:32 34° 292° (WNW) 04:25:17 435.225
PCSat 24 Jul 04:19:46 04:23:27 18° 43° (NE) 04:27:07 145.827
STARS 24 Jul 04:25:24 04:29:42 57° 73° (ENE) 04:34:02 437.465
ITAMSAT 1 24 Jul 04:51:25 04:56:21 46° 290° (WNW) 05:01:16 435.822/435.867
CUBESAT XI-V 24 Jul 04:53:44 04:57:40 28° 68° (ENE) 05:01:35 437.345
HORYU 2 24 Jul 04:54:37 04:55:30 10° 89° (E) 04:56:23 437.375
ISS 24 Jul 05:00:13 05:03:22 45° 30° (NNE) 05:06:31 145.825
KKS-1 24 Jul 05:14:07 05:17:32 22° 266° (W) 05:20:58 437.445
MOZHAYETS 4 24 Jul 05:22:16 05:25:34 19° 267° (W) 05:28:53
Cosmos 2499 24 Jul 05:31:17 05:37:10 24° 280° (W) 05:42:46 435.465 / 435.565
DANDE 24 Jul 05:38:29 05:44:43 72° 280° (W) 05:49:22 436.750
AIST 2 24 Jul 05:40:39 05:42:00 11° 38° (NE) 05:43:22 435.215
BEESAT 2 24 Jul 05:46:50 05:50:40 44° 243° (WSW) 05:54:27 435.950
BEESAT 3 24 Jul 05:48:39 05:51:46 22° 247° (WSW) 05:54:53 437.485
CUSAT 1 24 Jul 05:53:50 05:56:30 16° 284° (WNW) 05:58:49 437.405
AO-7 24 Jul 06:00:35 06:08:38 54° 296° (WNW) 06:16:39 29.400- 29.500
PCSat 24 Jul 06:02:05 06:07:31 81° 243° (WSW) 06:12:55 145.827
STARS 24 Jul 06:04:26 06:06:25 13° 269° (W) 06:08:24 437.465
CUTE-I 24 Jul 06:06:35 06:07:46 11° 88° (E) 06:08:56 437.470
NOAA 18 24 Jul 06:11:13 06:13:31 13° 89° (E) 06:15:48 137.9125
HORYU 2 24 Jul 06:28:03 06:32:32 72° 286° (WNW) 06:36:58 437.375
CUBESAT XI-V 24 Jul 06:30:58 06:34:58 29° 264° (W) 06:38:59 437.345
STRAND 1 24 Jul 06:33:20 06:37:17 23° 64° (ENE) 06:41:14 437.568
NOAA 15 24 Jul 06:35:50 06:40:23 29° 96° (E) 06:44:55 137.62
ISS 24 Jul 06:37:05 06:39:36 20° 227° (SW) 06:42:06 145.825
LilacSat-2 24 Jul 06:48:27 06:51:40 24° 95° (E) 06:54:50 437.200
GOMX 1 24 Jul 06:50:24 06:54:32 25° 95° (E) 06:58:50 467.674
O/OREOS (USA 219) 24 Jul 06:53:51 06:57:46 28° 59° (ENE) 07:01:41 437.305
DOVE 4 24 Jul 07:02:25 07:05:33 16° 91° (E) 07:08:44 437.250
BRITE-PL 24 Jul 07:07:23 07:12:06 77° 102° (ESE) 07:17:13 437.365/2234.400
RS-15 24 Jul 07:08:52 07:19:22 46° 108° (ESE) 07:30:24 29.354- 29.394
AIST 2 24 Jul 07:17:01 07:21:12 77° 57° (ENE) 07:25:22 435.215
Cubesat XI-IV 24 Jul 07:18:21 07:23:37 54° 100° (E) 07:28:49 437.490
HO-68 24 Jul 07:33:17 07:35:11 11° 86° (E) 07:37:06 435.675
CINEMA 3 24 Jul 07:41:39 07:43:00 11° 88° (E) 07:44:20 145.822/145.860
CUTE-I 24 Jul 07:43:08 07:48:31 89° 275° (W) 07:53:50 437.470
Cosmos 2491 24 Jul 07:46:27 07:51:35 16° 60° (ENE) 07:56:42 435.465 / 435.565
NOAA 18 24 Jul 07:49:14 07:54:49 84° 286° (WNW) 08:00:21 137.9125
PRISM 24 Jul 07:49:20 07:51:28 14° 64° (ENE) 07:53:36 437.425
AO-7 24 Jul 07:56:24 07:59:32 13° 317° (NW) 08:02:41 29.400- 29.500
STRAND 1 24 Jul 08:11:13 08:16:09 45° 261° (W) 08:21:06 437.568
NOAA 15 24 Jul 08:15:25 08:20:10 35° 292° (WNW) 08:24:54 137.62
CANX-2 24 Jul 08:20:56 08:24:14 22° 94° (E) 08:27:31 2200.000
LilacSat-2 24 Jul 08:22:45 08:25:52 23° 291° (WNW) 08:28:57 437.200
GOMX 1 24 Jul 08:28:05 08:32:39 38° 289° (WNW) 08:37:27 467.674
O/OREOS (USA 219) 24 Jul 08:33:13 08:37:06 29° 256° (WSW) 08:41:01 437.305
SO-50 24 Jul 08:34:23 08:38:09 23° 111° (ESE) 08:41:55 436.795
CUTE 1.7 + AOD 2 24 Jul 08:34:50 08:38:26 27° 95° (E) 08:42:01 437.475
AAUSAT CUBESAT 2 24 Jul 08:37:38 08:38:26 10° 90° (E) 08:39:14 437.432
DOVE 4 24 Jul 08:38:33 08:43:33 62° 286° (WNW) 08:48:44 437.250
BRITE-PL 24 Jul 08:48:07 08:50:05 13° 297° (WNW) 08:52:07 437.365/2234.400
UWE-3 24 Jul 08:57:04 08:59:03 13° 89° (E) 09:01:01 435.000/436.395/437.385
Cubesat XI-IV 24 Jul 08:59:22 09:03:16 21° 297° (WNW) 09:07:08 437.490
CUBEBUG 2 24 Jul 09:10:10 09:14:10 26° 94° (E) 09:18:04 437.445
TIGRISAT 24 Jul 09:14:27 09:15:26 11° 60° (ENE) 09:16:25 435.000
CINEMA 3 24 Jul 09:15:39 09:20:42 84° 285° (WNW) 09:25:43 145.822/145.860
YUBILEINY 24 Jul 09:16:43 09:23:16 24° 80° (E) 09:29:50 435.215
HO-68 24 Jul 09:16:50 09:24:04 72° 104° (ESE) 09:31:14 435.675
SEEDS 24 Jul 09:20:04 09:24:14 64° 101° (ESE) 09:28:20 437.485
RS-15 24 Jul 09:20:12 09:31:31 58° 312° (NW) 09:43:31 29.354- 29.394
PRISM 24 Jul 09:22:24 09:26:22 49° 260° (W) 09:30:20 437.425
CUTE-I 24 Jul 09:25:31 09:27:46 13° 302° (WNW) 09:29:59 437.470
UNISAT 6 24 Jul 09:27:40 09:30:25 16° 63° (ENE) 09:33:12 437.425
NOAA 18 24 Jul 09:32:20 09:34:36 13° 304° (WNW) 09:36:51 137.9125
COMPASS 1 24 Jul 09:38:22 09:42:30 72° 101° (ESE) 09:46:37 437.405
Cosmos 2491 24 Jul 09:41:10 09:49:58 80° 82° (E) 09:58:45 435.465 / 435.565
Oscar 11 24 Jul 09:52:20 09:56:12 31° 96° (E) 10:00:01 145.826/435.025
CANX-2 24 Jul 09:56:24 10:00:07 30° 290° (WNW) 10:03:48 2200.000
ANTELSAT 24 Jul 10:04:32 10:08:43 35° 70° (ENE) 10:12:59 437.575/2403.000
AAUSAT CUBESAT 2 24 Jul 10:10:14 10:14:18 61° 285° (WNW) 10:18:20 437.432
CUTE 1.7 + AOD 2 24 Jul 10:10:44 10:14:11 25° 291° (WNW) 10:17:36 437.475
SO-50 24 Jul 10:13:39 10:18:21 47° 308° (NW) 10:23:03 436.795
M-CUBED/EXP-1 PRIME 24 Jul 10:26:32 10:30:22 25° 100° (E) 10:34:13 437.505
UWE-3 24 Jul 10:31:20 10:35:57 64° 286° (WNW) 10:40:26 435.000/436.395/437.385
QB50P2 24 Jul 10:34:04 10:35:45 12° 62° (ENE) 10:37:26 145.880/145.840
POLYITAN 1 24 Jul 10:36:35 10:38:23 12° 62° (ENE) 10:40:10 437.675
ZACube-1 24 Jul 10:39:41 10:44:15 79° 283° (WNW) 10:48:40 437.345
FUNcube-1 24 Jul 10:40:41 10:45:14 82° 284° (WNW) 10:49:38 145.935
CUBEBUG 2 24 Jul 10:46:33 10:50:46 32° 291° (WNW) 10:54:53 437.445
TIGRISAT 24 Jul 10:46:45 10:51:21 88° 256° (WSW) 10:56:04 435.000
HUMSAT D 24 Jul 10:48:38 10:52:14 27° 95° (E) 10:55:45 437.325/437.525
AUBIESAT-1 24 Jul 10:55:16 10:59:37 39° 103° (ESE) 11:03:58 437.475
CINEMA 3 24 Jul 10:55:45 10:57:01 11° 300° (WNW) 10:58:15 145.822/145.860
SEEDS 24 Jul 10:57:55 10:59:22 12° 297° (WNW) 11:00:49 437.485
DELFI C3 24 Jul 11:01:29 11:05:27 85° 104° (ESE) 11:09:22 145.870
UNISAT 6 24 Jul 11:02:06 11:06:37 57° 260° (W) 11:11:15 437.425
HO-68 24 Jul 11:05:41 11:11:06 24° 303° (WNW) 11:16:30 435.675
Cosmos 2504 24 Jul 11:10:04 11:18:16 45° 87° (E) 11:26:30 435.465 / 435.565
YUBILEINY 24 Jul 11:10:24 11:19:09 72° 280° (W) 11:28:01 435.215
COMPASS 1 24 Jul 11:16:56 11:17:27 10° 298° (WNW) 11:17:58 437.405
NANOSAT C BR1 24 Jul 11:20:37 11:24:26 33° 70° (ENE) 11:28:16 145.865
DUCHIFAT 1 24 Jul 11:26:31 11:30:22 36° 71° (ENE) 11:34:16 145.980
Oscar 11 24 Jul 11:28:45 11:32:10 23° 293° (WNW) 11:35:33 145.826/435.025
RS-15 24 Jul 11:38:05 11:47:29 26° 343° (NNW) 11:57:12 29.354- 29.394
Cosmos 2491 24 Jul 11:39:44 11:45:44 21° 281° (W) 11:51:44 435.465 / 435.565
QB50P1 24 Jul 11:40:37 11:44:47 60° 74° (ENE) 11:49:00 145.935-145.965
ANTELSAT 24 Jul 11:41:51 11:45:30 23° 266° (W) 11:49:13 437.575/2403.000
POPSAT HIP 1 24 Jul 11:46:42 11:50:54 69° 75° (ENE) 11:55:09 437.405
AISAT 24 Jul 11:47:36 11:49:27 12° 91° (E) 11:51:18 437.250
BUGSAT 1 24 Jul 11:55:16 11:58:55 33° 70° (ENE) 12:02:37 437.445
DX 1 24 Jul 11:59:48 12:01:00 11° 90° (E) 12:02:11 434.975-435.025
M-CUBED/EXP-1 PRIME 24 Jul 12:00:36 12:04:53 37° 295° (WNW) 12:09:13 437.505
JAS-2 24 Jul 12:00:36 12:06:07 35° 69° (ENE) 12:11:08 435.910
QB50P2 24 Jul 12:06:47 12:10:59 64° 259° (WSW) 12:15:15 145.880/145.840
ESTCUBE 1 24 Jul 12:06:51 12:10:55 33° 97° (E) 12:14:58 437.505/2401.250
POLYITAN 1 24 Jul 12:09:25 12:13:38 63° 259° (W) 12:17:54 437.675
UKube-1 24 Jul 12:18:47 12:21:09 14° 92° (E) 12:23:31 .
HUMSAT D 24 Jul 12:24:17 12:27:45 25° 292° (WNW) 12:31:09 437.325/437.525
AUBIESAT-1 24 Jul 12:30:09 12:33:49 24° 298° (WNW) 12:37:30 437.475
VELOX 1 24 Jul 12:37:34 12:41:46 41° 99° (E) 12:45:58 145.980
CUBEBUG 1 24 Jul 12:47:25 12:51:48 62° 101° (ESE) 12:56:09 437.445
NANOSAT C BR1 24 Jul 12:57:04 13:00:14 20° 266° (W) 13:03:25 145.865
SPROUT 24 Jul 12:57:24 13:01:17 32° 97° (E) 13:05:08 437.525
DUCHIFAT 1 24 Jul 13:03:12 13:06:11 19° 267° (W) 13:09:11 145.980
Oscar 19 24 Jul 13:03:17 13:07:51 34° 68° (ENE) 13:12:26 437.125/150
Cosmos 2504 24 Jul 13:03:22 13:11:38 43° 287° (WNW) 13:19:58 435.465 / 435.565
YUBILEINY 24 Jul 13:13:19 13:17:45 15° 302° (WNW) 13:22:14 435.215
50 SAT 24 Jul 13:17:57 13:21:28 52° 286° (WNW) 13:24:58 437.505
QB50P1 24 Jul 13:19:30 13:20:57 11° 270° (W) 13:22:24 145.935-145.965
AO-7 24 Jul 13:21:53 13:24:03 11° 41° (NE) 13:26:12 29.400- 29.500
AISAT 24 Jul 13:21:54 13:26:19 61° 286° (WNW) 13:30:42 437.250
BUGSAT 1 24 Jul 13:31:24 13:34:22 19° 266° (W) 13:37:22 437.445
DX 1 24 Jul 13:33:16 13:37:35 66° 287° (WNW) 13:41:56 434.975-435.025
AIST 1 24 Jul 13:35:44 13:39:13 25° 89° (E) 13:42:42
ESTCUBE 1 24 Jul 13:44:00 13:47:32 23° 293° (WNW) 13:51:04 437.505/2401.250
JAS-2 24 Jul 13:45:36 13:51:11 33° 262° (W) 13:56:16 435.910
UKube-1 24 Jul 13:53:16 13:57:28 50° 288° (WNW) 14:01:39 .
RS-15 24 Jul 13:55:56 14:05:44 26° 19° (NNE) 14:15:35 29.354- 29.394
Gurwin Techsat 1B 24 Jul 13:56:49 14:01:55 48° 70° (ENE) 14:07:01 435.225
TISAT 1 24 Jul 14:04:41 14:08:43 41° 99° (E) 14:12:44 437.305
AO-85 24 Jul 14:08:21 14:12:31 23° 111° (ESE) 14:16:34 145.980
VELOX 1 24 Jul 14:14:47 14:17:56 19° 295° (WNW) 14:21:04 145.980
CUBEBUG 1 24 Jul 14:25:30 14:27:33 13° 297° (WNW) 14:29:37 437.445
ITAMSAT 1 24 Jul 14:30:23 14:35:03 34° 68° (ENE) 14:39:45 435.822/435.867
BEESAT 24 Jul 14:31:02 14:33:49 15° 91° (E) 14:36:35 436.000
SPROUT 24 Jul 14:33:39 14:37:03 23° 293° (WNW) 14:40:26 437.525
